Theta_e
315 315 314 317 318 319 321 321 326 324 322 322 319 322 319 320 323 319 320 319 318 319 319 320 320 320 321 321 322 325 326 330 331 326 330 333 331 333 332 331 332 331 332 331 331 332 329 331 335 335 335 334 334 334 334 333 331 328 324 321 320 317 315 315 315 314 314 314 312 311 311 316 321 323 326 329 329 329 330 329 325 321 314 311 319 324 322 320 321 321 321 322 320 317 315 313 311
315 315 315 318 319 320 321 324 332 327 322 320 317 322 319 317 321 320 323 321 320 321 321 321 321 322 322 321 322 321 323 325 324 327 332 332 333 333 331 331 331 331 332 331 330 330 329 332 335 335 334 334 334 334 333 333 331 326 322 320 320 317 315 316 317 315 314 314 313 311 311 318 324 325 326 328 328 329 331 331 327 323 315 309 317 321 320 322 322 322 324 322 320 320 320 317 313
315 314 316 319 321 322 323 325 331 327 322 320 320 323 319 318 322 323 321 319 321 322 323 322 321 322 321 323 323 322 323 323 326 331 333 333 333 332 332 331 331 332 331 330 329 327 328 332 335 335 334 333 333 333 333 331 327 323 320 319 319 316 315 317 317 316 315 315 314 311 313 317 320 323 324 325 327 329 331 331 329 324 313 310 319 322 322 323 322 323 326 324 319 320 322 321 316
314 314 318 320 323 325 327 328 333 330 323 322 321 322 325 324 324 321 317 317 322 322 321 320 321 321 321 326 326 325 326 326 330 333 332 333 332 331 331 331 331 332 331 330 328 326 329 333 333 334 334 333 332 331 331 328 324 321 319 319 319 316 314 317 317 316 315 316 316 313 316 319 319 323 324 324 325 326 329 329 327 321 310 312 321 322 323 323 322 323 326 324 318 319 322 321 316
314 315 319 320 324 324 325 325 328 326 320 323 321 321 332 331 324 319 316 318 321 319 319 320 324 324 323 326 325 325 327 328 332 333 332 332 332 332 332 331 332 331 331 329 327 327 330 332 332 333 332 331 331 329 328 325 322 321 319 319 318 316 315 316 317 316 316 316 316 314 316 319 322 327 327 326 325 326 327 324 322 317 308 313 321 321 323 322 321 323 324 324 320 318 318 317 315
313 316 319 319 322 321 323 319 320 325 321 324 323 323 331 326 319 317 316 318 318 318 319 319 324 325 324 327 326 324 324 328 332 332 332 333 334 333 332 332 332 331 329 327 326 327 331 332 331 332 331 330 330 327 326 324 321 320 320 320 318 318 317 316 317 317 316 316 317 315 314 313 318 325 326 326 326 327 327 323 319 315 308 313 321 321 322 322 321 323 323 324 322 318 314 314 316
315 318 319 321 322 319 327 326 323 327 319 318 324 327 325 318 315 316 317 318 318 318 319 319 321 323 325 327 326 324 323 326 329 331 333 334 334 333 333 333 332 330 327 326 325 329 332 331 331 331 331 330 328 327 326 323 321 320 320 320 319 318 318 317 317 317 317 316 316 316 314 311 312 317 320 323 325 326 326 323 318 312 308 313 321 321 320 320 320 322 321 320 317 314 312 313 315
317 320 320 325 325 323 329 325 324 327 316 313 319 323 320 316 316 316 318 318 318 318 318 319 320 321 323 325 325 325 323 322 326 331 334 334 335 333 333 334 332 329 327 326 326 330 332 331 331 331 331 329 328 327 325 323 321 321 320 320 320 319 319 318 317 318 317 316 316 316 316 313 310 310 311 315 318 319 319 317 312 308 307 313 319 318 317 318 320 320 317 313 310 309 310 311 313
317 320 321 323 324 327 328 319 319 321 318 318 317 318 317 316 316 316 317 316 317 318 319 320 320 319 321 323 324 324 322 323 326 331 334 334 334 333 332 334 331 328 328 326 326 329 331 331 331 330 331 329 328 328 326 324 321 321 321 321 321 320 319 318 318 318 317 316 317 317 316 315 312 309 307 307 309 310 310 309 308 307 307 311 315 315 315 315 317 317 313 308 308 309 309 310 311
317 320 319 324 327 325 321 316 319 320 318 318 317 317 317 316 317 315 316 316 316 317 318 319 319 318 321 324 324 324 323 322 326 331 335 335 334 333 332 334 332 329 327 327 326 327 330 331 330 330 330 329 328 328 327 325 322 321 321 321 321 321 320 320 319 319 318 317 317 317 317 315 313 310 307 306 306 306 306 306 306 306 306 307 310 310 309 310 312 315 313 310 310 310 311 311 311
319 320 318 325 331 324 320 319 323 325 319 316 316 317 317 317 316 314 315 316 316 316 317 318 319 319 321 324 324 324 322 321 325 330 334 335 334 333 333 333 333 331 328 327 326 326 328 329 330 330 330 329 328 328 327 327 323 321 321 322 322 322 321 320 320 320 318 318 317 318 318 316 314 311 308 306 306 305 305 306 305 306 306 307 310 311 311 312 313 315 315 313 312 312 312 312 310
318 321 328 331 328 324 325 324 322 324 320 318 319 317 317 316 315 314 315 316 316 316 317 317 318 319 323 324 323 322 322 320 324 330 333 334 335 334 334 334 334 332 329 328 327 326 326 327 328 329 329 329 328 328 327 327 325 322 321 322 322 322 322 321 321 320 319 318 318 319 319 318 315 312 310 308 307 307 307 308 309 310 311 312 315 316 317 317 316 316 316 314 314 313 313 312 310
319 322 332 326 321 323 323 322 320 321 320 320 318 316 317 315 315 316 315 316 315 317 317 317 317 319 324 324 321 320 321 322 327 332 332 332 335 335 334 334 334 334 331 330 329 328 327 327 327 327 328 328 328 328 327 327 326 323 322 322 322 323 323 323 321 321 320 318 318 319 320 319 317 314 312 312 312 311 312 313 314 316 317 318 318 318 319 319 319 318 316 315 314 313 313 313 311
321 322 327 321 319 323 322 320 319 319 321 322 317 315 317 315 316 316 316 317 316 316 317 316 317 319 323 323 321 318 318 323 329 333 332 332 335 335 335 334 334 334 333 333 333 332 331 330 328 327 327 327 327 327 327 327 327 325 322 322 322 323 323 323 322 322 321 320 319 319 320 320 318 316 315 316 316 316 316 316 317 319 320 320 320 320 321 321 320 319 316 315 314 314 314 314 314
321 320 327 327 321 321 321 320 320 320 322 321 316 315 316 315 316 316 316 319 317 316 315 316 318 318 320 322 323 316 315 322 328 332 333 333 335 335 335 334 335 334 334 335 335 335 334 333 332 330 328 327 326 326 327 327 328 327 324 323 322 323 323 323 323 322 322 321 320 319 320 320 319 318 317 317 319 319 318 318 319 320 321 321 322 322 322 322 321 320 318 316 315 315 315 315 316
321 319 325 326 319 319 318 317 319 322 320 316 315 315 315 314 315 316 316 317 317 315 315 316 318 318 317 319 320 316 315 317 324 331 333 334 335 335 335 334 335 335 335 335 336 336 335 335 334 333 331 328 326 326 327 327 328 327 326 324 323 324 323 323 324 324 323 322 321 320 320 319 320 319 317 318 319 320 319 319 320 320 321 322 322 322 322 322 322 321 320 318 316 315 316 316 316
318 322 327 324 320 320 318 318 319 321 322 315 313 315 315 315 314 316 316 316 317 315 315 316 317 317 316 317 319 318 316 314 320 329 332 334 335 335 335 334 335 335 335 335 336 336 335 335 334 334 332 329 327 326 327 327 327 328 328 327 325 325 325 323 323 324 324 323 323 322 321 320 320 320 319 318 319 320 320 319 320 320 321 322 322 322 322 322 322 322 322 320 317 315 316 316 317
320 330 329 324 327 323 320 323 317 317 321 315 313 315 316 316 315 315 316 315 316 315 315 316 317 317 316 317 318 318 316 313 317 324 329 331 333 334 333 333 334 334 333 333 334 335 334 334 334 333 333 330 328 328 328 328 328 328 328 329 327 327 327 326 324 324 324 324 324 323 322 322 320 320 320 320 319 319 320 320 320 320 321 321 322 322 322 322 322 322 322 321 319 316 316 316 317
321 328 324 330 337 322 317 319 313 314 318 315 313 314 315 316 315 315 317 315 314 316 315 315 317 316 317 317 317 318 316 313 315 318 322 325 328 329 330 331 332 332 330 329 330 332 333 333 333 333 333 332 330 331 330 329 329 329 329 329 329 328 329 328 327 325 325 325 325 325 324 323 322 321 320 321 321 319 319 320 321 321 321 321 321 322 322 322 322 322 322 321 321 318 316 316 317
317 321 323 334 331 316 314 315 313 314 315 314 313 314 315 315 315 315 315 314 313 315 316 315 316 316 317 317 316 317 316 313 314 315 317 320 322 324 327 327 327 327 325 324 325 328 330 331 332 332 332 332 332 332 332 331 331 331 331 330 329 330 329 329 329 328 327 326 325 326 325 324 324 323 322 321 321 321 320 319 320 320 321 321 321 322 322 322 322 322 322 321 321 320 317 316 317
316 320 327 326 317 315 316 314 314 315 314 314 314 314 314 314 315 315 314 315 315 314 315 316 316 316 316 315 315 316 315 314 314 314 316 318 320 322 323 322 321 321 321 322 324 325 326 328 329 330 331 331 332 332 332 332 332 332 332 331 331 330 330 330 330 330 329 328 327 326 326 326 325 325 324 323 322 321 321 321 320 320 320 320 321 321 321 322 322 322 322 322 321 321 318 316 316
315 317 319 316 312 316 316 313 315 314 314 315 313 314 315 314 315 314 314 318 318 315 315 316 316 316 315 315 315 315 315 314 314 314 315 317 319 319 320 321 321 320 320 321 321 321 323 325 326 328 329 330 330 331 332 333 333 333 333 332 332 331 331 330 330 330 331 330 329 329 328 327 327 326 326 326 325 323 322 322 322 321 321 320 320 320 321 321 321 322 322 322 321 321 319 316 316
318 315 312 312 313 316 315 314 315 314 314 315 313 315 314 314 314 314 313 316 316 314 315 315 315 316 315 315 315 315 315 314 314 314 314 315 316 317 317 318 318 318 317 317 318 319 321 322 323 325 327 328 328 329 331 333 333 333 333 333 333 333 332 331 331 330 331 331 331 331 330 329 329 328 327 327 327 326 325 324 323 323 323 322 322 321 321 320 321 321 322 322 321 321 321 318 316
319 318 312 313 314 314 315 315 315 314 315 315 315 314 313 314 315 313 313 314 315 314 316 315 315 316 314 315 315 315 314 314 314 314 314 314 314 315 316 315 316 316 316 315 316 317 318 319 320 321 324 325 325 326 328 330 331 332 332 334 334 334 334 332 332 331 331 331 331 331 331 331 330 329 329 328 327 327 327 326 325 324 324 324 323 323 323 322 321 321 321 322 321 321 321 320 317
317 318 313 313 314 314 315 315 315 314 314 314 314 314 313 314 314 312 313 315 315 314 316 316 316 315 315 315 315 315 315 314 314 314 314 314 314 315 316 316 315 316 316 315 315 315 315 316 318 319 320 322 323 323 325 327 329 330 330 332 333 334 335 334 332 332 331 332 332 332 331 331 331 331 330 329 329 328 328 328 327 325 325 325 324 324 324 323 322 321 321 322 322 321 321 320 319
314 315 313 312 313 313 314 314 314 314 314 314 314 314 313 313 314 314 315 315 316 315 315 316 317 316 315 315 315 315 315 315 314 315 315 314 315 315 315 315 315 315 314 315 314 314 314 314 315 317 318 319 320 321 322 323 325 327 327 328 331 333 334 334 333 332 331 332 332 332 332 332 331 331 331 331 330 329 329 328 328 327 326 326 325 325 325 325 324 323 322 321 322 322 321 320 320
314 313 313 313 313 313 313 313 313 314 314 314 316 315 314 313 314 317 316 315 315 315 315 316 316 316 316 316 316 316 316 316 316 315 315 314 314 314 314 314 315 315 314 314 315 314 314 314 314 314 316 317 318 319 319 320 321 323 324 324 327 330 333 334 333 332 330 331 332 332 332 332 331 331 331 332 331 330 329 329 329 328 328 327 326 325 325 325 325 324 322 321 322 322 321 320 320
313 313 314 313 312 313 313 314 313 314 314 314 315 314 313 313 315 316 315 315 316 315 316 315 315 316 316 316 316 316 316 316 316 316 315 315 315 315 315 315 315 315 315 314 315 314 314 314 314 314 314 315 316 316 316 317 318 320 322 323 324 327 330 332 332 332 331 330 331 332 333 332 332 332 331 331 331 331 330 330 329 329 329 328 327 326 326 325 325 325 323 322 322 322 322 321 320
313 315 317 316 318 317 313 313 313 313 315 314 313 313 314 316 316 316 314 315 316 315 316 315 315 316 315 316 316 316 316 316 316 316 316 315 315 315 315 315 315 315 315 315 315 314 315 314 314 314 314 314 314 314 315 316 316 317 320 321 322 325 327 329 330 331 331 330 331 331 332 332 331 332 331 329 329 330 331 330 330 330 330 329 328 327 326 326 325 325 324 323 323 323 324 323 321
315 315 317 320 321 320 312 311 313 313 314 314 312 313 319 319 315 314 314 314 314 314 315 315 316 316 315 315 316 316 316 316 316 316 316 316 315 315 315 315 315 315 315 315 315 314 315 314 315 314 314 314 314 314 314 315 315 315 317 319 321 323 325 326 328 330 331 331 330 330 331 331 330 330 329 328 328 329 329 330 329 329 330 330 329 328 327 327 325 325 325 324 324 324 324 324 323
317 312 318 322 317 320 317 311 313 314 314 314 312 313 320 321 314 313 314 314 314 314 315 315 315 315 316 316 315 316 316 316 316 316 316 316 315 315 315 315 315 315 315 315 315 315 315 315 314 314 314 314 314 314 314 314 314 314 315 316 317 320 323 324 325 327 329 330 330 330 331 330 329 329 329 328 328 328 329 329 329 329 329 330 330 329 328 327 326 325 324 325 324 324 324 324 324
322 313 321 321 314 323 323 310 311 315 314 313 313 315 320 319 314 314 315 315 315 315 315 315 315 315 315 316 315 316 316 316 316 316 316 316 316 316 315 315 315 315 315 315 315 315 315 315 314 315 314 314 314 314 315 314 315 315 315 315 315 317 320 321 322 325 327 329 329 330 331 331 330 330 329 328 327 327 328 328 330 330 329 330 331 330 329 328 327 326 325 324 324 324 324 323 322
324 316 320 321 316 322 321 312 310 312 314 314 313 316 321 318 314 315 315 315 316 315 315 315 315 316 316 316 316 316 316 316 316 316 316 316 316 316 316 316 316 315 315 315 315 315 315 315 315 315 314 314 314 314 315 315 316 316 316 316 316 317 318 318 319 322 326 329 330 328 329 331 331 331 330 329 329 329 328 327 327 329 328 328 329 329 329 328 327 327 326 325 324 324 324 323 321
321 317 319 321 319 318 318 318 312 310 314 316 314 315 320 319 314 314 315 313 314 314 316 316 315 316 316 316 316 316 316 316 316 316 316 317 316 316 316 316 316 316 316 316 316 316 316 316 315 315 315 314 315 315 315 316 317 317 318 318 318 318 317 317 317 319 322 325 328 328 328 329 330 332 332 332 331 331 331 329 328 328 327 326 328 329 328 328 327 326 325 325 324 324 324 324 322
320 319 318 318 317 315 318 321 315 312 315 316 317 316 320 320 314 313 316 314 314 314 315 315 315 315 315 315 315 315 316 315 316 316 316 316 317 317 317 317 317 317 317 317 317 316 316 316 316 316 316 315 315 315 316 317 318 319 319 319 320 319 318 317 316 317 318 321 325 327 329 330 329 329 330 332 332 331 331 331 331 332 330 328 328 329 328 327 326 325 325 325 324 324 324 324 323
322 323 325 324 320 318 319 320 314 311 316 318 318 318 319 320 316 313 316 314 312 313 315 314 314 315 314 314 314 314 314 315 315 315 316 316 316 317 317 317 317 317 317 317 317 317 317 317 316 317 316 316 316 316 317 317 318 319 320 320 320 318 318 317 316 316 318 322 325 327 328 329 327 326 327 330 330 329 330 329 330 332 332 331 330 330 329 328 327 327 325 325 324 324 324 323 323
320 323 326 324 321 319 317 318 314 309 315 318 316 317 318 318 318 313 313 313 310 311 313 314 314 314 314 314 314 314 314 314 315 314 316 316 316 317 317 317 317 317 317 317 317 317 317 317 317 317 317 317 317 316 317 317 318 318 319 319 317 317 317 317 316 315 316 320 326 328 329 328 326 326 327 329 329 328 330 331 331 329 329 329 328 328 328 327 327 327 326 325 324 325 324 323 323
319 321 323 320 318 319 315 315 316 310 313 318 315 317 318 317 317 311 309 310 310 311 311 312 314 314 314 314 314 315 314 314 315 315 315 315 316 316 316 317 317 317 317 317 317 317 317 317 317 317 317 317 317 317 317 317 317 317 318 318 318 318 318 317 316 316 316 318 322 325 327 328 328 328 329 330 329 326 326 329 331 330 329 328 328 328 329 327 326 326 326 325 324 324 323 323 322
323 320 320 320 318 318 317 315 316 312 313 320 320 319 317 315 316 312 308 310 311 311 311 312 313 313 314 314 314 314 314 314 314 314 315 314 315 315 315 316 316 316 317 317 317 317 317 317 317 317 317 317 317 317 317 317 317 318 319 319 320 320 319 319 318 317 317 318 320 321 323 325 326 327 326 326 329 328 326 327 328 329 330 329 330 331 329 327 326 326 325 325 325 324 322 321 321
324 322 319 320 318 318 319 316 316 313 312 317 320 318 316 315 318 315 308 307 310 311 312 312 312 313 315 315 315 315 315 315 315 314 315 315 315 315 315 315 315 315 316 316 317 317 317 317 317 317 317 317 316 317 317 317 318 319 320 321 321 321 320 320 320 320 319 319 319 320 321 322 324 325 324 324 325 327 329 329 328 329 330 330 330 330 329 327 327 325 324 324 324 324 323 321 321
320 328 329 324 322 321 317 317 318 315 313 315 316 317 320 320 324 324 313 307 308 310 311 312 313 314 315 315 315 316 316 316 316 315 316 316 315 315 315 315 316 315 315 316 316 317 317 317 317 317 317 317 317 317 317 317 318 319 320 321 321 321 321 320 320 319 319 319 318 318 319 321 322 323 324 325 325 324 326 327 328 327 326 326 328 331 329 328 327 323 322 324 324 324 324 322 322
317 326 329 324 328 326 319 319 321 319 317 313 311 316 325 325 325 327 321 314 313 309 307 310 313 313 312 314 315 315 316 315 316 316 315 316 316 316 317 317 317 317 316 317 317 317 317 317 317 317 317 317 317 317 317 317 317 318 318 319 319 319 318 318 318 317 317 318 317 317 318 318 320 321 322 324 325 324 323 322 324 323 320 320 323 329 330 329 329 323 320 324 326 325 324 323 323
316 318 320 322 329 327 320 319 318 320 317 310 312 317 320 321 319 319 320 319 320 315 309 308 311 313 312 313 314 314 314 314 314 314 314 316 316 317 317 317 317 317 317 317 317 317 317 317 317 317 317 317 317 317 317 317 317 317 317 316 317 316 317 316 316 317 317 318 318 318 318 318 318 319 320 321 322 324 323 322 321 320 321 321 322 325 327 326 326 321 321 325 327 326 324 324 323
316 316 319 325 328 323 324 323 319 321 316 315 321 321 315 317 317 316 317 319 321 319 316 310 310 314 314 313 313 314 314 314 314 314 315 316 316 317 317 317 317 317 317 317 317 317 317 318 317 317 318 317 317 317 317 317 316 316 316 316 316 316 316 316 316 317 317 318 318 318 317 317 317 317 317 317 318 320 321 323 321 319 323 327 325 325 323 320 321 321 323 326 326 325 325 324 323
318 314 318 324 324 326 331 330 326 320 313 318 324 316 314 322 322 319 314 315 318 320 320 314 311 315 315 313 313 314 315 315 316 316 316 317 316 316 316 317 317 317 317 317 317 317 317 318 317 317 317 317 317 317 317 317 316 316 316 316 316 315 316 316 316 317 317 317 316 316 316 315 315 315 315 315 315 315 316 319 320 319 322 325 326 325 321 319 323 325 326 326 325 324 325 324 322
316 311 316 319 321 326 329 327 324 317 314 323 324 313 312 320 325 324 315 312 320 323 321 315 311 315 316 314 314 315 316 315 316 316 316 316 316 316 316 317 317 317 317 317 317 317 317 317 317 317 317 317 317 317 316 316 316 316 315 315 315 315 315 315 315 315 315 315 315 315 315 314 314 314 314 314 314 315 316 318 320 321 322 324 323 320 320 323 326 326 326 327 326 325 324 323 321
311 315 320 320 323 325 327 328 320 313 318 326 321 314 312 314 323 328 316 311 316 319 320 317 313 315 316 316 316 315 316 316 315 316 315 316 316 315 316 316 316 316 316 317 317 317 317 317 317 317 317 317 317 317 316 316 316 315 315 315 315 314 314 314 314 314 314 314 314 314 314 314 314 314 314 314 314 315 316 318 320 321 322 323 321 319 323 326 326 325 325 325 326 325 323 322 321
312 324 324 319 323 322 324 328 319 313 323 323 317 314 312 312 321 323 317 317 316 314 317 318 314 315 316 316 316 316 316 316 315 315 315 315 315 315 316 315 316 316 316 316 316 316 317 317 317 317 317 317 317 316 316 316 316 316 315 315 315 314 314 314 314 314 314 314 314 314 314 314 314 314 314 314 314 314 315 315 317 319 320 322 321 321 321 321 322 324 325 325 324 323 322 323 320
318 323 322 318 320 318 319 325 319 317 321 315 314 315 311 314 318 316 317 319 315 311 312 315 313 314 317 317 316 316 316 316 316 316 315 315 315 316 316 316 316 316 316 316 316 316 316 316 316 316 316 316 316 316 316 316 316 316 315 315 315 314 314 314 314 314 314 314 314 314 314 313 313 313 313 313 313 313 313 313 313 314 316 318 320 322 322 321 321 322 322 322 321 320 322 323 320
317 319 321 319 318 315 318 321 315 316 318 312 312 314 314 317 315 314 316 312 310 309 309 312 312 313 316 316 317 317 316 316 315 315 315 315 316 316 315 316 316 316 316 316 316 316 316 317 316 316 316 316 316 316 316 316 316 316 315 315 315 315 315 315 315 315 314 314 314 314 314 314 313 313 313 313 312 312 312 312 312 312 312 312 315 318 322 323 322 321 321 320 319 320 322 321 319
316 317 316 317 322 322 320 321 318 318 320 315 310 314 322 321 312 313 313 308 308 311 311 313 312 312 314 313 315 316 315 316 315 315 316 316 316 315 315 316 316 316 316 315 316 316 316 316 316 316 316 316 316 316 316 316 316 315 315 315 315 315 315 315 315 315 315 315 314 315 314 314 314 314 313 312 312 312 311 311 311 311 310 310 311 313 317 321 321 321 322 322 322 321 320 319 320
316 313 312 314 321 324 317 314 317 317 317 316 313 317 325 319 312 312 308 306 308 309 311 314 312 311 311 311 313 313 314 314 315 316 316 315 316 315 316 316 316 315 315 315 315 316 316 316 316 316 316 316 316 316 316 315 315 315 315 316 316 316 315 315 315 315 315 315 315 315 315 314 314 314 313 313 312 312 311 311 310 310 310 310 309 310 312 315 318 320 322 322 322 320 317 318 320
315 313 316 317 315 322 319 310 310 311 312 316 315 317 322 316 314 317 312 311 312 309 310 312 311 310 310 311 313 312 314 315 315 316 315 315 315 315 315 315 315 315 315 315 316 315 316 316 316 316 316 316 316 316 316 316 315 316 315 316 316 316 316 315 316 316 315 315 315 315 315 315 315 314 314 313 313 312 312 311 310 310 309 309 309 310 311 313 315 317 319 319 319 319 318 317 319
318 318 318 314 309 317 320 313 316 316 314 318 315 315 319 316 317 322 315 312 315 315 312 310 310 311 311 314 314 314 316 315 316 316 314 315 315 314 315 315 314 315 315 315 315 315 316 316 316 316 316 316 316 316 316 316 316 316 316 316 316 316 316 316 316 316 315 316 316 316 316 316 315 315 314 313 313 313 312 311 310 310 309 309 308 310 312 314 316 316 317 318 319 320 319 319 319
316 318 314 314 316 319 316 313 318 317 314 320 319 313 313 313 317 321 315 313 319 318 315 312 310 310 312 316 316 316 317 316 315 315 314 315 315 314 315 315 315 315 315 315 315 315 316 315 316 316 316 316 316 316 316 316 316 316 316 316 315 316 316 316 316 316 316 316 316 316 316 316 316 314 314 314 313 313 312 312 311 310 309 309 308 309 310 312 315 316 316 317 317 318 318 318 319
311 311 309 315 322 321 317 314 316 316 314 317 320 317 316 316 317 318 313 317 322 318 317 315 309 309 314 315 315 316 316 315 315 315 315 315 315 315 315 315 315 315 315 315 315 315 316 315 316 316 316 316 316 316 316 316 316 316 316 316 316 316 316 315 316 316 316 316 316 316 316 316 315 315 314 314 314 313 313 312 311 311 310 309 309 308 309 310 312 313 314 315 316 317 317 318 318
313 314 313 315 317 315 317 315 314 318 319 319 318 316 318 320 317 316 314 317 319 316 316 315 309 311 315 314 314 316 315 315 315 315 315 315 315 315 315 315 315 315 315 315 315 315 315 315 316 315 315 316 316 316 316 316 316 316 316 316 315 316 315 315 316 316 316 317 316 316 316 315 315 315 314 314 314 313 313 312 311 311 310 310 308 307 308 310 311 312 315 316 317 317 318 319 319
314 314 315 315 315 315 316 315 312 314 315 319 318 312 317 322 317 314 315 313 311 309 310 312 312 313 315 314 315 315 315 316 315 315 315 315 315 315 315 316 315 315 315 315 315 316 315 316 316 315 316 315 315 316 316 316 315 315 316 315 315 315 315 315 315 315 316 316 316 316 316 315 315 315 314 314 314 313 313 312 312 312 311 310 309 308 308 311 313 314 316 317 317 317 318 318 318
Wind_Speed
3 2 1 1 1 1 2 3 1 3 3 2 1 1 2 2 2 2 3 1 1 1 2 7 11 13 7 5 7 7 7 6 6 3 3 9 18 19 17 20 19 18 17 17 17 15 15 15 15 14 12 11 10 9 8 7 6 6 7 9 11 12 11 11 12 12 12 12 13 13 13 13 14 16 18 18 17 14 13 11 8 9 10 12 13 14 13 13 13 13 14 14 14 12 11 13 13
2 1 0 1 2 1 0 3 1 3 4 1 3 3 2 2 1 5 6 4 4 6 12 15 16 14 10 11 10 8 5 1 5 5 9 19 23 19 19 20 19 18 17 16 16 15 15 15 16 14 13 12 10 9 7 6 5 5 7 9 11 10 10 11 12 12 12 13 13 13 13 13 13 14 16 16 16 14 13 10 8 8 9 11 13 14 14 14 14 14 15 13 13 13 12 13 14
1 0 2 2 2 2 1 3 1 1 3 2 5 3 1 1 5 7 7 5 11 16 18 16 13 10 8 7 4 2 2 1 6 12 19 25 23 22 21 19 19 17 16 16 15 15 16 16 16 15 13 12 10 9 7 6 4 5 6 9 10 9 9 10 11 12 12 13 13 13 12 13 14 14 15 15 13 12 12 10 7 6 8 12 14 15 14 14 14 15 15 12 13 14 13 13 13
0 1 3 2 1 2 3 3 1 4 3 4 3 4 2 5 8 7 4 9 17 16 10 8 6 5 3 3 3 2 2 4 10 17 23 25 21 22 22 20 19 17 16 15 15 16 16 16 15 15 13 12 10 9 7 5 4 5 6 8 9 9 8 9 10 11 12 13 13 13 13 13 16 17 17 14 11 11 10 7 4 4 9 13 15 15 14 13 14 15 15 13 12 13 12 11 12
1 2 3 2 0 2 3 2 2 4 4 5 2 5 5 6 7 6 5 13 15 6 4 6 4 4 3 4 3 0 3 7 13 18 22 23 21 21 21 21 19 17 16 15 16 17 17 16 15 15 13 12 10 8 7 5 5 5 6 7 8 8 8 9 9 10 11 13 13 13 13 13 15 17 16 14 12 11 8 5 4 5 10 13 14 14 13 13 14 15 14 13 12 11 10 10 11
2 4 2 1 1 2 2 1 2 2 5 5 4 5 5 7 8 7 8 11 8 3 6 6 5 6 5 4 2 3 6 7 12 18 21 23 21 21 21 20 19 17 16 15 17 18 18 16 15 14 13 12 10 9 7 5 5 5 6 6 7 8 8 8 9 9 10 11 12 13 12 12 13 15 15 13 12 11 8 6 5 6 10 13 13 13 13 13 14 14 13 12 11 10 9 10 12
3 3 2 2 2 2 2 3 4 3 3 5 4 5 6 8 9 8 8 8 4 5 7 5 9 8 3 2 3 5 6 4 11 17 21 22 21 21 20 20 19 18 17 16 17 18 18 16 16 15 13 12 10 9 7 6 6 6 6 6 7 7 8 8 8 9 10 11 11 12 12 11 11 11 12 11 10 9 7 6 5 7 10 12 13 12 12 13 13 13 12 11 10 8 8 9 11
4 3 3 3 2 4 2 2 3 3 1 3 4 5 10 13 13 9 6 5 4 5 6 9 11 5 1 4 3 6 4 4 11 16 21 21 22 22 21 20 19 19 17 17 18 18 17 16 16 14 13 12 10 9 8 7 7 7 6 6 7 7 7 8 8 9 9 10 10 11 11 10 10 9 8 8 8 7 6 6 7 8 11 12 12 11 11 12 12 12 10 9 8 6 7 8 9
5 2 2 3 1 3 2 1 2 2 2 4 3 5 11 15 14 10 4 3 4 7 9 13 8 1 5 5 3 7 5 6 10 17 21 20 22 22 21 21 19 20 18 17 17 18 17 16 15 14 13 11 10 9 8 7 6 7 6 6 7 7 7 7 8 9 9 9 10 10 10 10 9 9 8 7 6 6 7 9 10 10 11 11 11 11 10 11 11 11 9 8 7 6 7 8 8
4 2 2 2 2 2 2 2 2 1 4 4 3 7 13 16 13 9 6 5 6 8 10 11 4 1 8 5 3 7 8 8 11 19 21 19 21 22 21 20 19 19 19 18 17 17 17 16 15 14 13 11 10 9 8 7 6 7 6 6 6 6 7 7 8 8 9 9 9 10 10 9 9 9 9 9 8 8 10 10 11 10 10 10 10 10 10 11 10 10 9 7 7 7 7 7 7
3 2 3 4 3 1 2 3 3 4 4 4 3 7 13 17 12 6 6 6 7 8 9 8 4 6 8 3 4 7 10 10 13 20 21 19 20 20 20 19 19 19 18 19 18 17 17 16 16 14 14 12 10 9 8 7 7 7 6 6 6 6 6 6 7 7 8 9 9 9 9 9 8 8 8 9 10 10 11 11 12 11 11 11 11 11 11 10 9 9 8 6 7 7 7 7 7
2 2 4 3 2 2 4 3 3 5 5 4 2 7 13 16 9 5 8 8 8 7 8 7 5 9 5 1 5 9 12 12 14 19 20 20 20 19 20 20 19 18 18 18 18 17 17 16 16 15 15 13 11 10 9 8 7 7 7 6 6 5 5 5 6 6 6 8 8 9 8 9 8 8 9 9 10 11 12 12 12 13 12 12 11 11 10 10 9 9 8 7 7 6 6 7 7
4 2 5 2 3 2 3 4 1 4 5 4 4 7 13 14 8 11 12 8 9 6 7 6 7 10 4 2 6 10 14 13 16 19 19 20 21 20 20 20 19 18 18 18 18 18 17 16 16 16 16 14 13 11 10 9 8 8 8 7 6 5 5 5 5 5 5 6 7 8 8 8 9 9 9 10 10 11 12 13 13 13 12 11 11 10 10 10 10 10 8 7 7 6 6 6 7
5 4 5 2 1 2 4 3 0 1 3 6 5 8 14 11 8 14 13 7 7 7 7 7 8 9 3 3 6 12 17 16 20 20 19 20 22 22 21 21 19 19 19 18 18 17 18 17 17 16 16 16 14 13 12 11 10 9 9 9 8 7 6 5 5 5 4 5 6 7 7 8 9 9 9 10 10 11 12 13 12 12 11 10 10 10 10 11 11 11 10 8 7 6 5 5 6
6 5 5 2 2 1 4 2 2 5 5 5 6 11 14 9 8 14 13 8 7 7 9 8 10 7 3 6 5 12 18 19 22 22 21 21 21 23 21 21 21 21 20 19 18 18 18 17 17 17 17 17 16 15 14 13 11 11 10 10 10 9 8 7 6 6 5 5 5 6 6 7 8 9 9 9 10 10 11 12 11 10 9 9 9 9 9 10 11 11 10 9 8 7 5 5 4
7 5 4 2 1 0 3 2 3 3 5 4 9 13 11 5 9 14 10 7 7 10 10 9 13 8 3 7 4 9 18 20 23 24 24 23 22 24 22 22 23 23 22 21 20 19 18 18 18 18 18 18 17 16 15 14 13 12 12 11 11 10 10 9 8 7 6 6 5 5 5 6 7 8 9 9 9 10 10 11 10 9 8 7 7 7 7 7 9 10 9 9 8 7 6 5 4
7 4 4 2 2 2 3 4 4 3 5 5 10 15 8 2 9 12 9 7 9 13 10 8 15 13 5 6 4 9 19 21 23 25 26 26 26 26 25 25 25 25 23 23 22 21 20 19 19 18 19 19 18 18 17 16 15 14 13 12 12 11 11 11 10 9 8 7 7 6 5 5 6 7 8 9 9 9 10 10 10 9 8 6 6 5 5 5 7 8 8 8 8 7 6 5 5
6 3 3 1 3 3 5 7 7 4 3 6 11 16 10 6 9 10 7 6 9 12 10 10 13 13 8 6 6 11 19 21 23 26 27 28 29 29 28 27 27 27 26 25 24 23 22 21 20 19 19 20 19 19 18 17 16 16 15 14 14 13 12 12 11 11 10 9 8 7 7 6 6 6 7 8 9 9 9 9 9 9 8 7 5 4 4 4 5 6 7 7 7 7 6 5 5
4 3 3 3 5 4 5 6 7 4 2 6 11 13 11 9 12 12 6 4 8 9 7 9 11 12 10 8 8 13 18 20 22 24 26 28 29 30 29 29 29 29 27 26 25 24 23 22 21 21 20 20 20 20 19 18 18 17 16 16 15 15 14 13 13 12 12 10 10 9 8 7 7 6 7 8 9 10 10 10 10 9 9 7 6 5 4 3 3 4 5 5 6 6 6 6 6
2 4 3 5 7 4 4 5 5 6 5 7 10 9 9 9 13 12 7 5 5 8 10 10 12 14 13 10 11 15 18 19 21 22 24 25 26 28 28 28 28 27 26 25 25 25 24 23 22 21 21 21 21 21 21 20 20 19 18 18 17 16 15 14 14 14 13 13 12 11 10 9 9 8 8 8 9 10 10 11 11 10 10 9 8 7 5 3 3 2 3 4 4 4 5 5 6
3 5 4 5 6 2 4 4 3 6 8 9 10 7 6 8 12 11 9 6 3 11 18 17 16 16 15 14 13 15 18 20 21 22 23 25 25 26 26 26 24 23 23 24 25 25 25 24 23 22 21 22 22 22 22 22 21 21 20 19 19 18 17 16 15 15 15 14 14 13 12 11 11 10 9 9 10 10 11 11 11 11 11 11 9 8 6 5 4 3 3 3 3 3 4 5 7
4 2 2 5 7 2 2 2 2 3 7 10 9 7 6 8 10 12 12 8 7 13 17 18 17 15 15 15 15 16 18 20 21 22 23 24 25 25 25 25 24 23 23 24 24 24 24 25 24 23 22 22 22 23 23 23 23 23 22 21 21 20 19 18 17 17 17 16 15 15 14 14 13 12 11 10 10 11 11 10 11 11 11 11 10 9 9 8 6 5 4 4 3 3 3 4 6
3 2 1 5 6 2 2 1 0 4 9 11 10 7 8 8 6 11 16 14 11 8 9 13 16 15 14 15 17 17 18 20 21 21 21 22 23 23 22 23 24 23 23 23 22 23 23 24 24 24 24 23 23 23 24 24 24 24 24 23 22 22 21 21 20 19 18 17 17 16 16 16 15 14 13 12 11 12 12 11 11 11 11 10 10 10 10 9 9 7 6 5 5 4 3 3 5
3 2 2 5 4 3 4 2 2 5 9 10 9 7 7 9 5 6 15 21 16 8 5 8 14 17 16 16 18 18 18 19 19 19 19 19 19 18 20 21 22 23 23 22 22 22 23 23 24 24 24 24 24 24 24 25 26 26 25 25 24 24 23 23 22 20 20 19 19 18 18 17 17 16 15 14 13 13 13 12 12 12 12 11 11 11 11 10 10 9 8 7 7 6 5 5 5
2 3 4 5 4 4 4 3 4 4 7 8 7 6 4 7 5 4 14 20 16 13 9 7 10 16 18 17 18 18 19 19 19 20 20 20 20 21 23 23 23 25 25 23 22 22 22 22 23 24 25 25 25 25 25 25 26 27 27 27 26 25 25 24 23 22 22 21 21 21 20 19 18 18 17 16 15 14 15 15 14 13 13 12 12 12 12 11 11 11 11 10 9 8 8 7 7
4 6 6 6 4 4 5 5 5 5 6 6 5 2 2 3 4 7 14 16 15 15 13 10 9 12 16 17 17 18 20 20 20 20 21 21 23 25 25 24 25 26 24 22 22 22 22 22 23 24 25 25 25 25 26 26 27 28 27 27 27 27 26 26 25 24 24 23 23 22 22 21 20 19 18 18 17 16 16 17 16 16 15 14 13 13 12 12 11 11 12 12 11 10 10 10 9
8 9 7 6 4 3 4 4 5 5 5 4 5 3 3 2 1 6 7 6 11 16 16 14 12 11 13 14 15 17 19 19 19 20 21 23 25 25 24 25 26 25 24 24 23 22 22 23 23 23 25 26 26 26 26 26 27 28 28 27 28 28 27 27 27 26 26 25 24 24 23 23 22 20 19 19 19 19 18 18 19 18 17 15 14 13 13 13 12 11 12 13 12 11 11 11 11
12 13 7 5 4 2 1 3 5 4 3 3 4 2 3 1 1 9 7 2 4 11 16 17 16 16 15 15 15 17 18 18 20 23 24 24 24 23 23 24 23 23 24 23 21 22 23 23 24 24 25 26 27 27 27 27 27 28 28 28 28 28 28 28 29 28 28 27 26 26 25 25 24 23 21 20 20 20 20 19 20 20 19 18 16 15 15 14 13 12 13 13 13 13 12 13 13
11 10 4 5 7 2 2 1 4 3 3 3 4 1 5 3 8 12 7 5 3 4 12 17 18 19 18 18 18 18 19 18 21 25 24 24 24 23 23 22 21 22 22 20 22 24 24 23 24 24 25 27 28 28 28 28 28 28 29 29 29 29 29 29 30 30 30 29 27 27 27 27 26 25 23 22 21 21 21 21 21 21 20 20 18 17 16 16 15 14 14 14 14 13 13 14 14
7 4 4 2 7 4 3 1 3 3 3 3 4 1 6 7 15 15 7 8 8 7 10 14 18 20 20 21 20 21 20 20 23 24 24 24 24 25 24 22 22 23 22 22 24 25 24 24 24 25 26 28 28 29 29 29 29 29 29 30 30 30 30 30 30 31 31 30 29 28 28 28 28 26 25 24 23 22 23 23 22 22 22 22 21 20 19 19 18 16 15 15 15 14 14 15 15
3 2 2 2 1 4 5 1 4 5 2 3 5 2 6 8 11 9 8 12 13 14 14 14 17 19 21 22 22 23 22 22 23 23 24 24 25 26 26 24 24 25 24 25 25 25 25 25 26 26 26 27 28 29 29 29 30 30 30 30 30 30 31 31 31 31 32 32 31 30 30 30 29 28 28 26 24 24 25 24 25 25 23 24 24 23 22 22 21 19 18 16 15 15 16 17 17
3 2 1 3 3 5 7 1 5 5 2 2 5 2 6 9 8 2 1 5 8 13 13 12 15 17 19 21 22 23 23 23 24 24 24 24 25 27 27 26 26 26 26 26 26 26 27 27 27 28 27 27 28 28 28 29 29 29 30 30 30 30 31 31 31 31 32 33 32 31 31 32 31 30 30 28 26 26 26 26 27 28 25 26 27 25 24 25 25 23 21 19 17 17 18 19 20
4 3 3 1 2 3 5 1 1 1 2 0 2 3 3 5 5 1 4 3 1 5 7 8 11 13 15 18 20 22 23 24 25 26 26 25 25 25 26 26 26 26 26 26 26 27 27 27 28 29 28 28 27 28 28 28 28 28 29 29 30 30 31 32 32 32 33 34 34 33 32 33 33 33 32 31 29 28 28 26 26 27 25 27 30 27 25 28 29 26 24 21 19 20 21 21 22
2 2 2 3 3 2 2 2 2 2 2 1 2 2 6 7 7 6 4 4 5 8 10 10 11 13 15 17 20 22 24 26 27 26 25 24 24 24 25 25 24 25 25 25 26 26 26 27 28 28 29 28 28 28 27 27 27 27 27 28 29 30 31 32 32 32 33 34 35 35 34 33 33 34 34 33 32 32 32 29 28 29 26 26 30 30 29 33 33 28 24 22 20 21 24 25 26
5 3 3 3 2 3 3 3 2 2 2 2 0 2 9 11 12 17 18 14 15 17 18 19 19 20 21 23 25 26 27 29 28 25 24 24 24 24 24 24 24 24 23 24 24 25 26 26 27 27 28 29 29 28 28 28 27 28 28 27 28 29 31 32 33 33 33 33 34 34 34 34 34 34 34 36 35 35 35 33 34 37 32 28 31 34 36 37 35 31 27 24 22 22 26 28 28
9 6 5 5 3 4 5 4 4 1 2 3 4 5 8 10 10 16 23 19 15 18 20 22 23 24 25 26 27 28 30 32 29 26 25 24 24 23 24 24 24 24 23 24 24 25 25 25 26 26 27 27 28 29 29 29 29 29 29 29 30 30 31 32 33 34 33 33 34 34 35 35 35 34 32 34 35 37 38 35 34 39 38 34 32 36 41 40 34 31 30 29 27 26 28 30 30
7 6 5 4 4 3 3 3 5 1 3 4 4 4 8 11 10 15 24 19 13 18 21 24 27 27 28 28 28 30 31 31 29 27 25 23 22 22 23 24 24 24 24 24 25 25 24 24 25 25 25 26 28 29 30 30 31 30 30 30 31 31 31 32 33 34 33 34 35 36 36 35 35 33 32 33 34 37 40 37 32 35 38 38 37 37 40 41 33 30 34 35 32 30 29 29 30
5 6 5 2 2 2 2 2 4 3 1 3 2 3 9 11 11 15 20 14 13 21 22 25 29 28 30 30 30 31 31 30 29 28 25 23 23 23 24 24 25 24 23 24 25 25 24 24 24 24 24 26 27 27 29 30 30 30 30 30 29 30 31 32 33 34 34 34 35 36 36 35 35 34 33 35 36 35 37 38 36 39 40 40 43 38 36 40 35 32 39 41 38 34 31 28 29
5 4 5 2 2 2 3 3 4 4 0 3 5 6 9 11 10 15 18 15 18 23 23 24 27 28 31 32 33 33 33 32 30 28 25 24 24 24 24 24 24 24 23 24 25 25 26 25 24 23 23 24 25 26 28 29 29 29 30 30 30 31 32 33 33 34 34 34 35 36 35 36 36 36 36 35 36 36 36 36 37 41 41 42 45 39 35 40 39 38 43 45 43 38 33 30 30
4 4 5 2 2 1 1 2 4 4 2 2 4 5 9 8 6 11 15 15 18 20 20 21 23 25 27 27 28 30 31 31 29 25 19 17 19 19 20 19 19 20 21 22 23 23 24 24 22 22 22 22 23 24 26 27 28 29 30 31 31 32 33 34 34 35 36 35 36 36 36 37 37 38 38 36 36 36 37 38 37 38 39 41 44 41 43 46 43 42 45 47 46 41 37 32 31
1 3 6 3 3 4 2 2 2 3 4 3 3 5 7 5 5 7 7 6 10 13 13 17 19 20 21 21 22 22 24 24 21 16 11 11 13 13 13 14 14 16 16 16 17 18 19 18 19 19 20 21 21 23 24 26 28 30 31 32 33 34 35 36 36 36 36 36 36 36 37 38 38 38 39 38 38 37 38 39 40 41 41 43 45 46 50 49 41 40 45 47 47 45 42 35 33
2 3 6 6 7 6 2 2 4 4 4 4 5 4 6 6 5 7 5 5 9 10 9 16 21 19 21 23 23 22 21 20 16 13 10 10 11 10 11 11 11 12 11 11 12 13 14 14 16 17 19 20 21 21 23 25 27 28 30 32 33 35 36 36 36 35 35 35 35 35 36 36 38 39 39 40 41 40 40 40 42 43 42 42 45 47 48 45 41 43 48 48 47 48 47 39 35
2 4 5 6 7 8 5 3 3 1 2 3 4 3 5 7 5 8 6 7 10 11 10 17 22 20 20 23 24 22 21 20 17 14 10 9 8 7 6 5 5 6 6 7 9 10 10 11 13 15 17 19 20 21 22 23 25 27 28 30 32 33 35 35 34 34 34 34 34 35 36 36 37 39 40 42 42 42 40 39 39 40 40 41 43 45 45 46 49 50 49 50 50 51 48 41 37
3 3 6 8 7 8 6 6 4 2 2 4 4 4 2 6 6 6 5 6 10 11 11 14 18 17 14 15 16 13 10 8 6 4 4 4 3 1 1 1 2 4 5 6 7 7 8 9 11 12 15 17 19 20 21 22 24 25 26 28 30 32 33 33 33 34 34 35 35 36 36 36 37 38 39 41 42 42 41 40 39 38 41 45 44 42 43 47 51 51 50 53 54 52 46 40 38
4 4 7 6 6 7 5 6 4 1 2 4 5 2 2 6 7 5 4 4 8 9 9 11 15 14 8 3 3 3 5 7 8 6 3 2 4 5 4 3 2 1 2 3 3 4 5 6 8 11 13 16 18 19 20 22 23 24 25 27 28 29 30 31 32 33 33 34 35 36 35 35 35 36 37 38 39 40 39 40 40 37 38 43 43 43 44 44 48 53 55 55 54 50 42 39 39
5 7 7 6 6 6 5 5 4 3 2 4 6 2 2 5 7 5 2 1 5 7 7 8 12 12 7 7 10 12 12 12 10 8 7 5 6 6 6 5 5 4 4 3 2 1 3 5 7 9 12 14 16 18 19 20 22 23 25 26 27 28 28 29 30 31 31 32 33 33 33 33 33 34 35 35 36 37 37 38 39 39 39 43 45 45 45 47 52 58 57 55 52 45 38 37 39
11 8 7 7 6 5 4 3 4 3 3 6 6 3 1 3 6 4 2 2 4 3 5 7 11 13 12 14 16 16 14 12 10 9 8 5 5 5 5 5 5 5 5 4 3 2 3 5 7 9 11 13 15 17 18 19 20 22 23 24 25 25 26 27 28 28 28 29 30 30 30 31 32 33 33 34 35 36 37 38 39 41 41 44 45 44 45 49 54 57 55 52 48 42 39 41 42
9 5 5 4 4 4 4 4 4 1 5 6 5 2 2 4 5 4 4 5 5 4 3 7 9 10 11 14 15 13 12 10 9 8 6 6 5 4 4 5 6 6 5 4 2 2 3 6 8 11 13 15 16 17 18 18 19 20 21 21 22 22 23 24 24 24 25 26 26 27 27 29 29 31 32 34 35 36 37 38 40 42 42 44 45 45 46 46 48 51 50 48 44 43 46 47 46
5 5 6 4 2 3 2 3 1 3 6 4 3 1 3 6 7 8 9 8 6 8 8 6 9 8 6 8 7 7 8 8 6 5 4 7 7 6 7 8 8 8 8 7 6 5 5 6 7 10 12 16 18 19 19 19 19 19 19 19 19 19 20 21 21 21 22 23 24 25 26 26 27 29 30 31 33 34 36 38 39 41 43 45 46 47 46 45 46 47 46 45 47 48 49 48 49
4 5 5 4 3 2 2 3 2 4 4 3 3 2 3 4 5 9 12 7 4 7 9 9 9 7 4 3 3 2 4 6 5 4 6 8 9 10 10 11 11 11 12 12 12 12 12 12 12 12 12 13 15 18 19 20 19 18 18 18 18 18 18 18 19 20 20 21 21 22 22 23 24 26 27 28 29 30 33 35 37 39 41 43 46 49 49 47 47 48 51 53 52 51 50 48 50
3 3 6 5 5 5 4 4 3 4 3 3 4 2 3 2 2 7 10 9 10 11 11 11 11 8 7 8 8 7 2 3 4 5 8 10 11 12 11 12 13 13 13 13 13 14 16 17 19 19 18 16 15 16 17 19 19 18 18 18 17 17 17 17 17 17 17 17 18 18 19 20 22 23 24 25 26 28 30 32 34 37 38 39 42 47 51 52 51 51 53 53 50 50 52 52 52
2 2 5 3 5 5 3 3 5 3 1 3 2 3 4 3 5 9 8 9 10 9 9 9 8 6 6 4 4 4 3 2 4 8 11 11 12 12 11 11 11 12 12 13 14 16 17 19 20 21 22 21 20 18 17 17 18 18 17 17 17 17 16 16 15 15 15 15 16 16 17 18 20 21 22 24 25 26 28 29 32 34 35 36 37 41 47 52 54 52 50 50 50 51 51 51 53
2 2 3 5 4 7 5 2 1 4 1 3 2 4 5 3 6 9 6 7 8 5 6 9 8 5 8 6 5 5 6 7 9 11 12 11 10 10 9 10 10 10 12 14 16 18 19 19 19 20 21 23 22 20 19 17 17 17 17 17 17 17 16 15 14 14 14 15 16 16 16 18 19 20 21 23 24 26 27 29 31 33 34 35 36 39 42 45 50 52 52 53 53 52 49 49 51
5 3 6 4 2 4 4 2 3 4 2 5 1 4 5 1 4 7 6 4 8 7 7 10 8 5 12 13 11 10 10 10 11 12 10 8 8 7 7 9 9 10 11 14 17 19 20 19 19 19 20 22 23 23 21 19 18 18 17 17 17 17 17 16 15 15 16 16 16 17 17 18 19 20 21 22 24 26 27 29 31 33 34 35 36 38 41 45 47 50 51 51 51 50 49 48 49
4 5 4 4 3 1 2 2 2 1 2 5 4 4 4 4 5 5 2 4 7 9 7 8 6 4 14 17 16 12 12 13 12 10 8 6 6 7 8 9 10 12 13 14 18 20 20 19 18 18 19 21 22 23 23 21 19 18 18 18 19 19 18 18 17 17 17 17 17 18 19 19 20 22 22 23 24 25 27 29 31 32 34 35 36 36 39 43 46 48 49 49 50 50 51 50 50
4 4 3 3 3 4 3 3 4 3 2 3 4 5 3 6 6 6 7 8 8 7 5 6 3 8 14 15 16 14 13 12 10 9 7 8 9 11 13 14 15 16 16 17 19 20 19 19 18 18 19 20 21 23 23 22 20 19 18 18 19 21 21 20 19 19 19 19 19 20 21 22 23 23 24 24 25 26 27 29 30 32 33 34 35 35 37 40 43 46 47 48 49 49 51 51 50
3 4 3 2 1 2 2 1 3 4 3 2 3 5 5 5 4 8 10 9 8 6 4 2 5 14 15 13 15 15 13 12 10 9 9 10 14 16 19 20 21 21 20 20 21 21 20 19 18 19 20 20 20 21 22 22 21 20 19 18 20 21 22 23 22 21 21 20 21 22 23 24 25 25 26 26 26 27 28 29 30 31 33 33 34 35 36 37 39 42 44 47 48 48 51 52 52
6 6 7 7 5 4 3 3 1 2 3 4 3 5 7 5 4 7 7 6 4 6 9 9 12 15 12 12 15 15 13 12 9 9 11 14 17 18 20 20 20 20 21 21 21 21 21 19 18 18 19 19 19 20 21 21 21 20 19 18 20 21 23 25 25 25 24 23 23 24 25 27 27 27 28 28 28 29 29 30 30 31 32 33 34 34 35 36 38 40 43 45 46 48 51 52 53
Wind_Direction
282 259 257 225 22 49 19 25 46 356 72 110 290 164 216 203 203 155 136 174 120 348 158 147 135 138 135 128 146 122 114 160 165 153 196 157 145 153 158 159 160 159 159 155 157 160 160 152 146 145 141 140 137 134 127 112 92 70 60 52 47 49 60 67 68 70 70 71 71 74 78 84 88 92 96 95 94 97 93 88 87 96 104 106 105 105 107 104 97 94 93 93 93 90 86 87 87
269 251 67 116 51 25 310 54 82 327 54 121 260 180 240 321 146 176 179 193 154 123 117 121 121 116 104 109 110 90 86 145 174 162 145 145 147 157 162 161 158 159 159 155 157 159 159 154 148 148 146 145 142 141 133 119 100 74 64 55 48 50 66 73 71 72 73 76 74 75 79 87 94 95 103 108 109 108 99 92 92 101 109 112 110 103 100 98 96 92 91 91 94 91 83 85 85
264 114 100 117 56 43 111 60 76 107 95 186 256 244 240 147 190 205 200 167 132 122 112 111 105 92 86 91 79 82 104 68 157 146 144 152 157 160 162 161 158 159 160 156 157 157 159 156 149 148 150 150 149 147 140 127 102 77 67 59 53 56 70 78 75 73 73 76 76 77 82 92 98 99 104 107 108 110 103 100 106 113 114 112 109 104 99 97 96 93 92 91 94 92 84 86 84
84 111 110 121 83 50 73 58 125 127 142 199 240 257 220 179 203 220 197 141 134 126 112 109 83 66 53 82 90 106 123 131 153 151 154 160 162 161 159 160 160 161 163 159 157 156 158 157 151 151 155 154 153 149 144 133 103 83 73 64 60 62 73 81 77 73 73 74 74 77 83 93 101 102 104 105 108 111 110 115 128 126 120 115 109 105 100 99 98 95 97 94 93 93 87 84 79
111 135 145 167 75 60 88 70 114 122 190 184 164 254 236 196 201 210 161 144 148 134 118 123 85 85 95 115 113 103 144 142 158 161 160 160 162 163 160 160 161 163 165 162 160 159 158 158 156 155 157 156 154 150 147 135 109 94 82 72 69 71 75 81 81 76 74 74 73 75 82 91 104 108 108 113 119 118 117 131 149 127 118 116 109 105 100 99 99 97 99 94 92 94 89 79 74
111 128 143 172 84 108 123 156 187 188 220 168 151 240 229 199 190 175 147 147 160 151 145 136 127 126 104 110 88 137 144 144 167 168 161 160 164 165 162 162 162 164 164 164 164 161 160 161 160 159 160 160 157 153 151 141 120 107 95 81 80 81 79 84 87 83 79 78 75 75 80 84 101 113 116 120 123 123 122 127 139 125 119 115 109 106 100 99 99 99 99 97 95 91 84 78 79
115 131 96 90 77 51 117 169 207 217 210 168 176 207 191 189 182 161 144 146 152 146 155 158 147 130 98 133 113 149 152 158 171 169 164 162 167 169 167 165 164 164 164 166 166 163 163 166 165 165 165 164 161 159 156 149 135 122 112 96 90 89 84 88 92 92 87 84 82 78 81 81 93 109 115 119 121 128 131 130 134 126 127 121 112 109 102 101 100 100 101 99 94 85 78 79 87
123 137 78 98 64 17 92 141 232 210 173 216 221 195 174 175 173 165 155 151 154 152 156 159 150 122 143 157 149 174 160 162 171 172 170 166 170 174 171 168 166 166 167 167 168 166 168 171 170 169 170 169 166 165 161 157 148 135 126 111 100 94 89 89 95 97 92 90 87 81 83 85 89 98 105 112 121 129 129 132 132 126 129 122 115 113 106 104 103 103 100 93 88 79 75 78 89
134 137 70 90 120 14 24 353 274 226 278 265 236 188 172 171 170 166 153 134 152 147 148 156 151 72 178 167 177 182 162 162 174 174 174 172 174 177 174 171 170 169 170 170 170 170 171 174 174 174 175 176 174 172 169 165 159 147 137 124 108 102 94 90 98 99 96 94 91 85 83 86 90 94 97 101 111 118 118 124 123 121 125 121 115 110 103 102 102 100 93 87 85 75 68 73 89
131 110 106 80 104 35 350 295 270 243 276 277 241 191 172 172 175 173 151 136 153 142 147 162 160 150 169 174 177 178 174 172 177 176 178 176 176 180 176 173 175 175 174 172 173 174 175 177 177 179 181 183 183 181 179 176 172 163 151 137 121 112 102 93 100 102 100 98 95 91 86 87 90 93 98 100 102 108 113 116 116 119 122 117 111 103 100 99 98 98 93 87 82 74 70 76 92
120 55 105 76 71 119 208 231 267 278 286 319 293 206 179 174 173 176 150 137 154 142 149 165 174 157 152 181 190 181 181 178 178 177 179 180 180 182 179 176 179 182 181 176 175 176 178 180 180 184 187 190 192 190 189 188 186 179 168 154 140 127 113 100 98 101 103 101 100 98 93 93 94 98 102 105 106 109 111 112 115 119 119 113 105 100 98 96 94 95 93 82 78 78 78 84 99
153 26 81 89 138 200 209 184 256 296 319 329 263 206 184 177 172 173 154 146 157 144 159 168 183 163 135 251 202 189 183 175 175 179 183 184 185 184 183 182 181 185 187 183 180 179 180 184 185 187 191 196 198 199 200 197 198 194 183 173 160 147 131 114 103 101 105 107 108 106 103 101 103 107 108 110 111 112 112 113 116 116 116 112 105 100 96 92 87 85 82 74 73 77 82 87 102
163 138 95 111 170 170 173 146 254 328 331 272 215 198 184 183 196 184 156 145 157 144 170 179 181 167 146 245 210 197 182 174 176 183 190 189 189 187 186 186 184 186 188 189 188 187 186 188 191 192 195 199 203 205 208 208 209 206 196 190 182 172 161 141 124 114 114 115 115 115 113 110 110 113 115 116 116 117 118 119 120 117 115 113 109 104 96 90 85 81 78 75 77 79 85 89 99
143 134 115 131 114 115 152 126 213 174 261 249 208 192 183 192 216 183 153 141 168 154 170 180 179 173 175 211 221 204 181 174 181 188 194 193 194 192 190 188 189 190 189 194 194 195 194 194 198 199 200 202 206 208 211 214 214 214 206 200 195 191 187 174 155 140 136 130 126 125 122 118 116 119 123 124 124 124 126 128 126 121 116 112 108 102 96 91 88 86 83 81 86 91 92 93 99
135 114 103 109 56 60 171 154 143 160 236 223 186 185 178 203 219 182 164 157 175 159 162 171 179 184 207 196 217 206 184 176 182 190 195 194 197 198 197 192 193 195 192 196 197 200 199 199 202 204 207 206 209 210 212 214 214 217 213 207 202 200 201 196 182 168 163 153 141 136 132 130 127 128 132 134 134 134 137 137 133 128 122 116 108 103 98 93 89 86 84 82 86 93 95 95 99
135 108 77 84 76 221 183 175 124 141 251 200 170 176 166 207 196 181 179 164 165 163 167 174 184 198 240 203 202 194 187 182 181 188 194 195 198 201 203 198 198 199 196 197 199 202 202 203 205 207 210 210 212 213 214 215 215 217 216 213 209 207 209 208 202 190 184 178 166 154 149 148 143 140 143 146 146 145 149 148 145 141 134 127 116 110 105 95 91 87 83 80 82 88 92 93 100
134 103 66 72 163 201 190 179 169 168 243 213 174 176 158 162 178 182 190 176 172 171 179 184 189 205 239 219 210 190 190 188 182 185 193 198 201 204 208 205 203 204 201 201 201 204 205 206 208 210 211 211 213 214 216 217 216 217 217 216 213 214 215 215 212 206 200 194 188 176 168 169 164 157 153 157 160 160 162 162 161 158 153 148 132 127 122 103 96 90 84 79 79 83 91 97 105
134 108 95 171 184 200 187 179 193 167 213 211 189 183 165 150 167 174 178 179 177 174 190 195 195 209 220 215 215 198 192 191 187 186 192 198 202 206 209 207 206 207 206 206 205 206 207 208 210 212 212 212 213 215 217 217 218 218 219 219 218 218 217 218 217 215 211 207 206 194 184 185 186 180 170 169 172 175 177 176 176 175 175 169 160 159 152 124 103 93 88 81 79 81 90 102 115
120 103 116 209 203 205 197 188 201 181 227 206 190 187 173 165 165 164 172 178 171 173 197 202 202 209 206 201 199 193 192 195 194 191 195 199 202 205 207 209 208 209 211 211 211 211 210 210 211 214 214 214 214 215 217 218 219 219 220 222 223 223 221 222 221 220 218 216 218 211 200 196 198 199 192 185 184 186 190 192 191 191 193 190 189 195 187 161 126 106 99 90 84 80 88 107 123
121 107 130 238 214 207 223 221 218 214 234 195 182 187 175 171 167 168 177 164 176 196 199 198 205 207 200 194 187 189 194 197 198 198 200 202 204 206 208 210 211 212 215 217 216 215 215 214 214 216 217 217 218 218 218 219 220 221 223 224 226 228 226 225 224 223 221 219 223 222 216 209 207 209 207 203 199 197 198 201 202 203 207 207 211 214 210 200 174 141 124 112 98 88 93 116 133
161 131 170 224 192 184 225 225 269 238 222 191 176 170 171 176 176 182 167 142 241 228 210 209 214 208 200 196 190 190 196 200 201 202 204 206 208 209 211 214 217 218 219 220 220 220 219 219 219 219 219 220 221 222 221 222 222 223 224 225 228 230 230 229 227 226 224 221 223 225 224 221 218 216 216 215 214 212 209 210 212 213 218 222 226 224 222 223 212 200 182 156 135 117 112 129 144
143 169 204 169 159 171 213 210 321 214 179 173 166 160 179 177 184 197 177 165 230 233 225 225 225 219 213 211 202 195 198 202 204 204 206 209 211 213 215 218 221 223 223 223 224 224 223 224 224 223 223 223 224 224 225 226 226 227 227 228 229 230 232 231 230 229 228 225 224 227 228 227 226 223 222 221 224 222 218 219 221 222 226 232 235 230 228 230 227 225 216 200 181 162 142 143 157
146 237 223 153 169 187 166 158 17 160 160 171 176 177 182 171 193 211 201 210 225 235 245 236 232 228 226 223 213 207 205 206 208 210 210 210 213 216 218 219 222 225 227 228 228 228 227 227 227 227 226 226 226 225 226 227 229 230 231 232 232 232 234 234 234 233 232 230 228 230 231 232 232 231 229 227 229 229 227 225 225 228 231 236 239 237 235 232 231 231 226 216 207 203 191 170 168
133 175 193 156 176 180 155 134 128 170 181 187 188 189 189 182 197 217 219 228 231 239 257 239 232 227 226 224 220 222 220 217 218 218 216 217 219 220 221 223 226 229 231 233 232 231 231 230 229 230 229 229 230 228 228 228 230 232 233 234 234 234 236 237 238 238 237 234 232 232 233 234 235 237 236 235 235 234 234 231 229 230 233 239 241 242 241 236 233 232 229 223 219 220 215 204 190
114 165 190 147 139 166 162 147 133 161 182 186 188 194 207 203 210 243 238 237 234 236 241 239 230 223 225 226 226 229 226 226 226 222 220 221 223 223 224 226 228 231 234 235 234 234 234 233 231 231 232 232 232 232 231 231 231 233 234 234 236 236 236 239 240 241 240 239 237 236 235 235 236 238 239 239 239 238 238 235 232 232 235 240 244 246 245 241 237 234 230 224 222 226 224 220 212
190 167 171 142 121 147 156 165 149 147 164 169 183 222 271 209 243 269 255 250 240 233 229 228 225 217 219 225 231 232 231 231 229 227 226 223 223 224 226 227 229 232 235 236 237 237 236 236 235 233 234 234 235 235 234 234 233 235 236 236 237 238 238 239 240 241 242 241 241 240 238 237 237 238 239 240 241 241 241 239 238 236 237 240 244 247 246 244 241 237 234 230 226 228 230 226 223
176 144 124 108 102 139 149 166 160 152 156 165 184 241 280 178 226 259 254 260 237 228 224 222 222 218 217 224 232 235 237 236 235 234 230 227 225 226 226 226 231 233 235 236 237 238 238 237 238 237 236 236 236 237 237 238 237 237 239 238 238 239 240 239 240 242 243 242 243 243 243 240 238 237 238 240 243 244 242 242 243 241 240 240 243 245 244 245 242 237 236 235 234 234 239 236 232
154 137 107 37 33 134 160 149 159 158 144 169 168 217 286 114 207 239 232 270 241 223 224 224 226 228 229 233 235 236 238 238 238 236 232 230 230 230 229 229 233 235 237 239 239 239 239 239 239 239 239 239 239 238 239 239 240 240 240 241 240 240 240 240 241 242 243 243 243 244 245 243 240 237 236 237 241 244 244 243 245 247 247 245 244 244 243 242 241 237 233 233 235 238 243 243 239
135 128 118 345 5 23 292 134 165 170 139 163 130 12 290 226 228 236 225 238 255 220 224 228 233 236 237 239 239 238 240 238 237 236 234 233 234 236 237 238 240 240 243 246 243 241 241 241 241 241 239 241 242 242 242 242 242 242 242 243 243 242 241 241 242 242 244 244 244 245 246 246 244 240 238 237 236 240 243 245 246 249 252 251 247 245 244 242 239 235 231 230 233 239 246 247 242
122 92 111 13 8 352 302 73 163 166 151 180 137 256 277 254 243 242 239 245 246 241 234 232 235 239 240 241 242 242 243 241 240 241 239 236 236 237 241 244 243 244 246 245 244 244 244 243 242 242 240 240 243 244 244 244 244 244 244 244 245 244 244 243 243 243 244 245 246 247 247 247 247 245 243 239 236 237 240 242 244 248 254 254 248 245 247 249 246 237 231 230 233 239 244 246 245
104 58 62 53 94 271 303 16 155 150 192 201 132 195 264 273 268 258 254 251 245 244 245 241 238 239 242 243 245 248 249 247 248 248 245 244 242 241 244 245 244 246 247 245 247 248 247 246 245 244 243 242 243 244 245 246 246 245 245 246 246 246 246 247 246 245 244 245 246 247 248 249 249 248 247 244 239 238 239 241 242 242 247 252 248 244 247 251 253 245 232 229 232 237 241 242 242
38 101 314 350 159 259 312 339 161 155 205 178 122 206 266 275 281 313 278 251 238 242 245 246 243 241 244 246 248 252 255 254 254 253 251 249 246 245 247 247 246 247 249 249 250 250 249 248 247 247 246 245 244 245 246 247 247 246 245 246 246 246 247 249 249 248 247 247 247 245 244 248 250 249 250 251 246 242 241 242 244 241 242 251 248 243 245 249 255 252 237 228 233 237 240 241 239
1 107 187 261 168 265 317 332 239 160 162 96 97 213 261 290 269 129 64 44 51 249 251 244 242 245 248 251 253 255 258 258 256 255 254 253 250 249 249 249 249 249 250 252 252 252 251 250 250 249 248 248 247 247 247 247 247 247 246 245 244 244 246 248 249 249 248 248 249 248 244 243 246 247 250 253 251 249 247 247 248 243 245 254 248 242 249 250 249 250 238 228 235 240 240 242 242
301 51 133 215 188 196 284 299 309 57 126 266 12 229 248 279 274 255 268 309 311 292 279 267 256 255 257 259 261 261 262 263 261 259 259 259 259 257 255 254 252 251 251 251 252 252 252 253 252 252 252 251 250 249 249 249 249 248 248 247 246 245 245 246 247 248 247 245 245 249 249 246 244 243 246 249 250 249 249 252 252 241 240 255 251 245 252 250 241 240 237 232 237 243 242 242 242
189 183 154 209 201 192 240 255 256 55 78 228 44 279 262 270 277 272 268 276 288 286 281 279 274 268 267 266 265 264 264 264 263 262 263 265 265 266 264 262 257 254 252 251 251 252 252 252 252 253 253 253 252 252 251 251 251 250 249 248 247 246 245 245 245 247 248 247 245 246 249 250 249 246 243 245 247 248 247 250 252 242 237 248 250 247 248 245 237 234 235 235 238 241 243 242 241
171 174 147 155 170 223 242 249 265 134 118 231 218 235 265 271 279 277 272 277 285 281 277 275 271 268 267 265 263 262 262 264 266 266 265 266 266 268 268 266 263 259 255 252 251 251 252 251 252 252 252 252 253 252 251 249 249 248 248 248 248 247 246 245 245 246 246 247 247 248 248 249 251 251 247 245 247 251 249 246 247 245 242 244 250 252 249 241 237 240 240 237 237 239 239 238 239
138 130 111 138 165 244 255 265 303 64 147 253 235 238 268 269 272 272 273 281 282 272 270 266 264 264 263 263 263 263 262 266 269 268 267 267 266 266 266 266 265 262 258 255 253 253 254 253 252 253 252 253 252 251 251 250 249 248 249 250 251 251 250 248 247 247 246 244 244 247 249 250 252 254 251 249 250 251 248 241 243 250 248 248 250 254 253 243 237 247 248 241 239 240 239 238 240
99 126 124 116 168 228 251 253 313 15 148 265 351 313 272 261 265 268 270 274 262 256 254 257 260 262 262 263 263 262 264 266 267 267 268 269 269 267 266 265 263 263 261 258 257 257 257 256 255 255 255 255 254 255 254 254 254 253 255 257 259 259 257 254 252 251 250 246 244 245 247 249 251 251 248 249 252 252 248 241 244 250 246 246 245 244 249 243 237 248 251 244 238 237 239 242 245
82 111 125 130 193 245 286 287 326 16 44 274 346 335 278 261 259 262 259 251 253 256 254 257 261 262 264 263 261 262 263 264 265 268 270 270 271 270 269 268 265 264 261 259 258 258 257 256 258 258 258 258 259 259 258 258 259 259 260 261 262 262 261 259 257 256 254 251 249 247 248 248 249 250 249 248 248 251 253 247 247 250 246 248 245 240 249 246 241 251 253 245 238 234 234 239 248
87 106 126 165 240 160 255 288 328 12 63 275 315 307 281 280 279 268 261 254 259 265 262 261 260 260 264 264 263 263 262 264 266 268 270 271 273 275 276 274 269 263 258 257 256 257 258 258 260 260 260 261 261 262 262 263 261 260 259 260 261 261 261 260 258 257 255 253 253 251 251 251 251 253 253 251 247 246 250 249 248 250 251 254 249 245 253 248 243 252 252 243 239 236 234 240 248
44 134 139 159 202 174 194 314 343 355 22 25 352 315 291 314 329 292 286 278 270 271 269 266 260 257 261 265 264 263 262 265 267 264 267 280 285 284 282 277 271 262 255 255 257 259 260 260 262 262 261 262 262 263 265 264 262 260 258 258 258 258 257 258 256 255 255 254 255 254 254 253 253 254 254 253 251 247 246 247 249 250 251 252 249 249 252 245 243 258 257 247 242 240 240 246 250
293 228 175 174 174 164 170 19 51 33 355 345 19 358 291 311 318 278 302 341 300 292 284 271 269 265 262 262 262 261 263 266 268 268 276 292 295 288 281 276 272 265 255 254 258 260 262 261 260 260 261 262 262 263 264 264 264 262 261 259 258 258 258 259 260 261 261 260 261 260 259 258 257 257 255 254 254 252 251 250 249 252 253 250 246 249 249 242 247 261 260 251 245 242 242 244 250
213 237 173 152 133 129 137 113 80 82 260 315 44 104 266 301 289 263 303 339 306 299 293 281 284 285 276 269 267 266 267 268 270 273 279 289 292 287 280 270 262 255 248 251 256 261 261 259 258 258 260 262 263 263 263 263 263 262 262 262 263 263 264 266 268 269 269 269 268 266 264 263 261 260 259 257 256 256 257 254 251 251 256 252 243 243 246 246 251 257 256 252 245 240 239 243 252
205 224 131 124 117 129 142 114 98 200 239 330 13 114 238 290 265 265 320 331 299 295 295 295 304 307 295 276 268 268 270 265 253 250 261 274 284 345 82 162 193 200 214 229 238 246 249 250 253 255 259 261 262 264 263 263 263 264 264 265 265 266 267 270 271 271 271 271 269 268 267 265 263 261 260 259 257 255 253 252 251 250 251 249 241 242 251 252 254 254 252 248 242 238 239 246 255
232 193 120 122 123 127 121 100 97 21 13 317 315 118 197 270 277 302 332 302 293 301 295 298 318 328 333 311 230 167 138 132 127 123 127 113 88 76 64 62 79 139 188 209 219 231 238 242 249 252 255 260 262 264 264 264 265 265 266 266 266 268 269 271 271 270 270 270 269 269 268 266 264 262 260 260 259 257 253 250 252 250 247 245 244 251 258 258 258 256 251 246 241 237 240 250 257
169 140 97 77 73 79 74 88 100 42 15 257 256 203 198 264 288 312 354 256 266 286 287 297 332 354 32 79 100 112 112 110 109 102 98 97 88 72 57 60 63 57 59 54 36 330 279 266 266 267 265 266 266 265 265 265 265 266 266 267 268 269 270 270 271 271 270 270 270 270 269 268 267 265 263 262 261 260 256 251 251 251 248 245 247 253 257 258 257 253 248 246 242 237 244 257 263
135 113 73 58 34 34 44 50 76 53 305 255 246 250 183 263 283 267 205 207 220 251 308 312 349 25 67 90 93 99 98 97 101 98 94 99 97 79 65 70 72 64 65 61 43 358 308 295 289 288 284 279 276 272 269 267 266 266 267 268 270 271 271 271 270 271 271 271 272 272 273 272 270 269 267 264 263 260 257 252 249 250 250 248 249 251 252 254 254 249 246 243 238 240 257 269 268
116 91 84 80 359 12 27 0 40 105 257 262 262 271 175 221 264 250 231 254 231 203 276 301 331 15 65 90 91 90 90 93 101 98 95 111 112 95 83 81 81 79 78 74 53 352 315 305 298 296 294 291 287 282 277 273 269 269 270 271 272 272 271 271 271 271 272 272 273 275 274 273 272 270 268 265 263 261 259 257 253 250 250 249 251 251 250 252 254 250 243 238 239 252 265 269 266
78 91 97 89 355 8 353 312 349 218 245 273 281 244 209 231 246 254 256 260 241 216 219 266 312 339 42 79 83 84 85 83 84 85 99 118 117 109 104 96 94 92 83 75 62 42 19 353 330 317 309 301 295 289 284 279 274 274 275 275 275 275 272 271 270 270 271 271 273 274 273 273 272 270 268 266 265 264 262 261 259 256 253 250 250 250 249 250 252 250 244 246 254 261 263 263 262
122 131 124 125 127 107 267 267 283 259 256 287 285 247 255 268 257 251 250 243 249 245 237 262 293 300 319 332 324 10 60 58 58 83 106 115 115 112 110 103 96 87 74 64 56 46 36 25 12 0 345 325 308 298 289 282 279 279 280 280 278 275 271 269 268 268 269 271 272 273 274 275 275 274 272 269 268 266 264 263 262 261 258 254 249 246 246 246 246 249 252 254 255 255 257 261 262
175 158 130 144 158 160 210 218 211 243 277 304 295 257 206 214 260 250 250 264 277 266 255 268 281 283 285 280 283 290 304 47 66 109 116 117 119 115 108 97 86 73 62 52 44 38 31 24 16 9 3 354 341 323 302 286 281 281 281 279 275 270 267 265 264 265 266 269 271 273 276 277 278 278 278 275 271 266 264 263 263 262 260 257 251 244 242 242 244 248 251 251 250 252 256 258 259
244 119 108 164 184 144 138 181 174 170 323 307 262 238 213 212 277 276 272 284 281 259 252 266 279 304 323 308 303 287 234 163 114 122 123 122 120 111 98 86 73 59 49 40 31 26 21 18 14 7 2 359 356 345 323 298 283 278 276 273 269 263 260 258 258 260 263 267 270 273 274 276 277 278 278 277 275 271 268 266 264 263 261 258 253 246 242 241 242 245 248 249 252 255 257 257 258
171 125 172 212 169 113 113 204 53 83 256 274 218 251 292 329 296 297 311 301 295 276 258 264 275 347 25 37 66 100 130 133 126 124 123 119 110 99 83 67 52 43 37 29 24 18 12 10 8 5 359 355 356 354 341 318 295 281 271 263 258 255 253 253 254 257 260 263 265 268 271 273 275 277 278 278 277 276 274 272 269 266 263 257 252 246 243 242 243 245 248 251 254 255 255 256 259
126 176 204 188 115 88 108 184 356 48 245 275 256 242 284 328 276 317 357 312 283 282 271 271 283 25 58 66 78 97 113 123 126 121 118 112 95 76 58 43 32 27 22 17 14 10 6 4 2 3 358 352 351 353 349 333 313 296 280 263 252 249 248 248 250 253 256 259 263 266 269 272 274 276 277 277 277 277 276 276 274 271 267 260 252 245 242 242 243 245 248 251 253 255 255 255 257
127 172 163 121 138 166 98 148 186 150 240 280 300 277 255 202 228 298 339 194 242 270 280 278 281 57 77 79 81 94 114 123 122 112 103 90 64 38 24 17 9 6 1 359 2 3 3 360 357 359 357 351 347 348 348 339 323 308 292 272 257 251 248 246 248 251 254 258 263 268 269 271 274 275 277 277 277 277 277 276 276 274 270 263 255 248 243 242 243 245 248 250 251 254 256 256 256
66 108 107 82 131 163 159 149 161 174 202 262 308 318 270 225 213 212 216 211 220 240 262 275 253 112 102 93 88 95 110 116 110 93 73 49 28 9 359 354 351 355 353 351 356 360 360 356 353 352 352 350 343 341 342 338 328 315 299 280 265 258 255 252 251 252 256 259 263 267 269 270 273 274 277 278 279 279 279 279 278 275 271 264 257 252 246 245 246 247 249 252 253 255 256 256 256
114 126 156 177 82 105 154 162 121 141 163 193 285 297 266 246 211 192 207 218 215 204 200 214 134 124 119 106 100 102 105 108 100 78 51 24 6 353 349 346 344 348 353 356 357 357 353 349 346 344 344 345 339 335 335 333 330 321 306 289 276 269 265 261 257 254 256 260 264 268 269 271 273 275 277 279 281 283 283 282 281 277 273 266 259 253 248 247 249 249 250 252 253 254 256 257 257
164 176 187 178 155 123 148 241 250 117 159 172 187 269 262 242 206 196 205 218 204 153 138 133 125 126 125 111 108 107 102 101 85 47 15 357 350 345 344 342 340 342 348 352 350 347 343 341 337 335 335 336 334 331 328 326 326 323 313 298 285 279 275 271 267 263 261 262 265 268 270 271 273 275 277 279 281 283 284 284 283 281 278 272 263 255 248 245 247 249 250 252 253 253 255 258 259